GFSSE_sfc_temp_021.txt.gz
Temp
68 72 76 77 78 78 78 77 77 77 77 77 77 77 77 76 76 76 77 77 77 78 78 78 77 76 75 74 73 74 73 73 73 74 77 77 78 78 77 76 75 75 77
71 73 74 77 77 77 77 77 76 76 77 77 77 77 77 77 76 76 76 76 77 77 77 77 75 75 74 73 72 73 73 73 72 73 74 76 76 77 77 76 75 76 77
72 74 74 75 77 77 76 76 76 76 77 77 77 77 77 76 76 76 76 76 76 77 76 75 74 73 72 72 72 72 72 72 72 72 72 71 73 77 77 76 76 77 76
73 73 74 74 76 76 76 76 76 76 77 77 77 77 77 76 76 77 76 75 76 75 75 74 73 72 72 71 71 71 71 71 72 71 70 72 76 77 77 76 76 76 76
71 73 74 73 75 76 76 76 76 76 76 77 77 77 77 76 76 75 75 75 75 75 74 74 73 72 71 71 70 70 70 71 71 70 68 68 70 76 76 76 75 74 74
70 73 72 73 75 75 75 76 76 76 76 77 77 77 77 77 76 76 75 75 74 74 74 73 72 71 70 70 69 69 70 70 69 64 65 68 69 76 76 74 74 73 73
70 71 71 73 74 75 75 75 75 75 76 76 76 76 76 76 76 75 75 75 73 73 73 73 71 70 69 69 68 68 68 68 63 61 62 63 67 74 75 73 73 73 73
70 69 71 70 71 73 74 74 74 75 75 75 76 76 76 75 75 74 73 73 74 73 72 71 70 69 68 67 67 67 67 66 64 60 60 61 70 72 72 72 72 72 73
70 68 69 70 70 69 71 71 72 73 74 74 74 75 74 74 74 73 72 73 73 72 72 70 69 68 67 66 65 65 65 65 59 59 63 60 70 72 72 71 72 72 72
68 67 67 68 69 68 72 68 69 70 71 72 71 70 69 70 70 70 69 70 72 71 71 69 68 68 67 65 64 63 63 64 57 57 56 59 69 71 71 70 71 71 71
66 66 65 66 67 68 67 68 66 67 68 68 68 67 65 65 65 65 64 68 70 70 70 69 68 67 65 63 63 62 61 55 55 54 55 64 67 70 70 70 70 70 71
62 64 65 64 66 66 70 68 66 67 67 67 66 67 67 63 62 63 62 65 67 67 69 68 67 64 59 52 52 58 53 54 53 52 53 63 67 69 69 69 70 70 70
63 63 64 65 64 65 68 65 66 67 65 65 68 67 66 66 63 59 57 58 58 60 58 61 58 53 52 51 51 51 53 52 50 50 56 61 64 68 69 69 69 69 69
64 65 64 65 64 64 66 64 65 66 64 63 66 67 66 65 61 56 55 54 54 53 53 51 50 50 50 52 52 52 52 50 48 49 52 59 63 66 69 69 69 69 70
64 65 63 63 66 66 63 62 62 64 64 65 62 64 66 66 62 55 54 54 53 52 51 49 49 49 50 52 52 52 51 51 51 49 48 57 61 65 69 69 69 69 70
62 63 64 63 66 64 64 62 61 61 62 61 62 62 62 62 62 58 54 54 53 52 50 49 48 47 48 49 50 51 50 50 51 50 49 51 60 63 67 68 69 69 70
57 59 60 63 62 62 62 61 61 61 61 60 61 62 62 60 59 56 54 53 54 52 50 48 48 47 46 48 48 49 49 49 50 50 49 49 51 58 62 65 67 69 70
54 55 57 61 61 61 60 60 61 60 60 60 60 60 62 61 60 55 53 52 51 50 49 48 46 45 45 45 44 45 46 47 48 49 49 49 49 50 54 59 62 68 68
52 53 54 56 56 59 60 59 59 60 59 59 59 58 61 60 59 59 53 51 51 49 47 49 44 45 42 43 44 43 44 44 46 50 48 48 48 47 47 55 57 58 62
51 52 53 55 55 55 55 55 55 56 56 57 57 58 61 60 58 57 53 51 49 47 46 45 45 43 43 43 49 45 42 43 43 43 45 48 46 47 46 47 46 49 59
49 49 50 51 52 53 51 51 52 52 53 54 58 60 60 59 58 55 53 51 48 48 47 46 44 44 42 41 41 40 40 42 43 42 42 43 44 46 45 45 44 45 48
47 47 48 49 50 51 51 50 50 49 49 51 55 57 59 58 57 55 53 51 47 45 45 44 44 41 42 42 40 36 36 39 40 42 41 42 42 43 44 45 44 45 45
44 44 47 48 48 48 49 51 49 49 48 48 49 53 54 56 56 54 53 51 49 49 46 46 44 44 41 40 40 41 33 36 35 38 39 40 40 39 40 42 44 45 44
43 44 45 46 47 48 47 46 44 43 42 44 45 46 48 50 52 54 53 52 49 48 47 43 45 44 41 39 39 44 40 38 35 34 37 38 39 40 39 39 41 43 43
42 41 42 45 45 45 45 44 43 41 42 42 44 44 45 46 47 48 48 51 49 47 46 45 45 41 41 41 41 37 37 37 37 34 32 33 36 37 39 39 39 39 42
41 40 41 42 43 44 43 43 42 40 40 40 40 40 41 43 43 44 45 44 46 47 46 45 45 45 45 41 40 38 38 39 36 36 32 30 32 34 36 37 38 39 38

GFSSE_sfc_temp_024.txt.gz
Temp
66 71 75 77 78 78 78 77 77 76 77 77 77 77 77 76 76 76 77 77 77 78 78 78 77 75 74 74 74 74 73 73 74 76 77 77 77 78 77 75 75 74 77
69 72 74 76 77 77 77 77 76 76 77 77 77 77 77 76 76 76 76 76 77 77 77 76 75 74 73 73 73 73 73 73 73 73 73 76 76 77 77 75 75 75 76
70 73 74 75 77 77 76 76 76 76 77 77 77 77 77 76 76 76 76 76 76 77 76 75 74 73 72 72 72 72 72 73 72 72 72 69 73 77 77 75 75 76 76
71 73 73 73 76 76 75 75 75 76 76 77 77 77 76 76 76 76 76 76 76 76 75 74 73 72 72 71 71 71 72 72 71 71 68 71 75 77 77 76 76 75 75
69 72 73 73 75 76 75 75 75 75 76 77 77 77 77 76 76 76 75 75 75 75 74 74 73 72 71 71 70 70 71 72 70 69 66 67 69 75 76 76 75 74 73
68 71 71 73 75 75 75 75 75 76 76 76 77 77 76 76 75 75 74 74 74 74 74 73 72 71 70 70 70 70 71 71 67 63 64 67 69 76 75 75 74 73 72
67 68 70 73 74 75 75 75 75 76 76 76 76 76 76 76 76 76 75 74 73 73 73 72 71 70 69 69 69 69 69 68 60 59 61 63 67 74 75 74 73 73 73
66 68 70 69 71 73 74 74 75 75 75 76 76 76 76 75 75 75 74 74 74 73 72 72 70 69 68 68 68 68 67 65 60 58 58 60 70 72 72 72 72 72 72
66 67 68 70 70 69 70 71 72 73 74 74 74 74 74 73 73 73 72 73 74 73 72 71 69 68 67 67 66 66 65 64 57 58 62 59 70 72 72 71 71 71 71
65 66 67 67 69 70 70 68 69 70 71 71 71 70 69 70 70 70 68 70 73 72 71 70 68 68 67 66 65 64 63 62 55 56 56 59 69 71 71 70 70 71 71
64 63 65 66 67 68 68 67 66 67 68 68 68 66 65 65 66 65 64 68 71 70 71 69 68 67 65 63 63 63 60 53 53 53 54 64 68 70 70 70 70 70 70
61 62 62 64 66 66 69 67 66 69 69 69 68 66 65 66 63 63 62 65 67 67 69 69 68 65 58 50 50 57 51 52 51 51 52 63 67 69 70 69 69 70 70
59 60 62 64 65 65 67 66 65 65 64 64 64 64 64 65 63 62 58 59 59 60 58 61 59 52 50 49 49 50 51 50 48 49 55 61 65 69 70 70 70 69 69
58 60 61 62 63 64 65 65 66 66 67 63 63 64 65 63 62 61 59 57 55 54 54 52 50 50 49 50 51 50 50 48 47 48 51 59 62 67 69 70 70 70 69
54 54 57 60 61 63 63 62 63 65 66 64 62 62 63 64 61 60 58 55 53 52 51 49 49 48 47 49 49 50 49 49 48 48 47 57 60 65 69 70 70 70 70
54 54 55 57 60 61 63 61 62 63 63 62 61 62 61 62 63 60 57 56 52 51 50 49 48 46 46 47 48 49 48 48 48 48 47 49 59 62 67 69 70 70 70
51 52 53 57 58 59 60 60 59 60 60 60 61 61 61 60 58 57 57 56 55 51 50 48 47 45 44 46 46 47 47 47 47 48 48 48 51 58 62 66 68 69 70
49 50 52 55 54 57 58 58 59 59 58 59 59 59 61 62 60 57 57 57 56 51 49 47 45 44 43 43 43 43 44 46 47 47 47 47 48 50 54 59 61 66 69
48 48 50 52 51 53 56 57 57 58 57 57 57 58 61 60 60 59 57 57 55 52 47 48 44 44 42 41 43 42 42 42 44 48 46 46 46 47 46 55 57 57 62
47 48 48 50 50 52 52 53 54 54 54 55 55 58 60 59 58 57 55 54 53 51 48 45 45 42 42 42 47 44 40 41 41 41 43 46 44 45 45 46 46 48 57
46 46 47 47 47 49 47 47 49 49 49 52 57 57 59 58 57 55 54 53 51 50 51 49 43 43 41 40 40 39 39 40 40 40 41 41 42 44 43 44 43 44 47
43 44 45 46 46 46 48 46 46 46 47 47 53 55 55 57 56 55 53 52 50 49 48 47 47 41 41 40 39 36 36 39 39 41 39 41 40 41 42 44 43 44 44
41 42 44 45 45 45 45 47 47 46 45 46 46 49 50 51 53 53 53 51 50 49 47 47 46 46 42 39 39 40 33 35 34 36 38 38 40 38 39 41 42 43 43
39 41 42 43 44 45 44 43 41 40 39 39 40 42 44 45 45 47 49 50 49 48 48 46 47 46 44 42 38 42 37 37 36 36 36 36 37 39 38 38 40 41 42
39 38 39 41 41 42 42 42 41 39 40 40 40 40 41 42 42 42 42 43 45 47 46 46 45 44 44 44 41 38 35 36 35 35 35 34 35 36 39 40 39 39 41
37 36 37 39 39 40 40 39 38 37 38 37 37 37 38 39 40 40 40 39 40 40 42 44 44 44 44 45 44 42 41 37 36 35 32 32 32 35 35 36 38 40 38

GFSSE_sfc_temp_030.txt.gz
Temp
65 67 75 77 78 78 78 77 77 76 77 77 77 77 77 77 77 77 77 77 77 78 78 77 75 75 75 74 74 75 75 75 74 75 76 77 77 77 77 75 74 74 76
67 69 73 76 78 77 77 76 76 76 77 77 77 77 77 77 76 76 76 77 77 77 77 76 75 74 74 73 73 74 74 74 73 73 73 75 76 77 76 75 75 75 76
67 70 72 75 77 77 76 76 75 76 77 77 77 77 77 76 76 76 76 76 76 77 76 75 74 73 73 72 73 73 74 73 73 73 72 68 70 76 76 75 75 76 76
67 70 72 73 76 76 76 75 75 76 76 77 77 77 76 76 76 76 76 75 76 75 75 74 73 73 72 72 72 72 73 72 71 70 67 68 72 76 77 76 75 75 74
67 69 71 72 75 76 75 75 75 76 76 77 76 76 76 76 76 76 75 75 75 74 74 74 73 72 71 71 72 72 73 71 68 66 65 66 67 75 76 75 74 74 73
65 68 70 73 75 76 76 75 75 76 76 76 76 76 76 76 76 75 75 75 74 74 73 73 72 71 70 70 71 71 71 69 65 61 62 66 67 75 76 75 74 73 73
64 67 68 72 74 75 75 75 75 75 76 76 76 76 76 75 75 75 75 76 75 74 73 72 71 70 69 69 69 70 69 66 59 59 60 62 66 74 74 74 74 73 73
64 66 68 68 71 73 74 74 74 75 75 75 75 75 76 75 74 75 75 75 75 75 73 72 70 69 68 68 68 68 66 64 59 56 57 59 69 73 73 72 72 72 72
62 64 65 67 68 68 70 71 72 73 73 74 74 74 73 74 73 73 73 74 74 74 73 71 69 68 68 67 67 66 64 62 55 55 59 57 68 72 72 71 71 71 71
61 63 64 65 69 68 68 66 68 70 71 71 71 70 69 69 70 70 68 71 73 73 72 71 69 68 67 66 65 64 62 61 54 55 55 57 69 71 71 70 70 70 70
61 60 62 63 68 70 70 66 65 66 68 68 68 67 66 66 68 66 65 68 71 71 71 70 68 67 64 61 63 62 59 51 51 52 52 63 68 70 71 70 70 70 70
51 55 58 61 64 67 69 69 67 67 68 69 69 69 68 66 65 65 63 65 67 67 69 70 68 63 56 48 47 53 48 49 49 49 50 63 67 70 71 70 70 70 70
48 51 52 53 59 66 67 67 66 65 64 67 68 69 68 65 63 63 62 62 63 62 61 61 55 52 50 47 46 47 47 47 45 47 51 61 64 67 70 70 70 70 69
47 49 50 50 51 60 67 68 66 64 64 64 64 66 65 63 62 61 61 61 60 60 59 57 53 50 49 48 47 47 47 46 45 46 48 56 61 65 69 71 70 70 70
46 47 49 49 49 53 61 65 65 65 63 63 63 62 63 62 61 61 60 59 59 58 58 55 53 50 48 48 47 47 47 46 46 46 45 53 58 63 66 70 71 71 70
46 46 48 50 50 51 58 60 62 63 65 65 64 63 62 62 61 60 58 58 57 57 56 55 53 49 47 46 46 46 46 45 45 46 45 45 56 60 63 66 70 71 71
44 46 47 50 50 53 57 59 59 60 62 61 61 60 61 60 60 60 59 58 58 56 55 53 52 50 48 45 44 44 44 45 44 45 45 45 47 54 58 63 66 69 70
43 44 47 49 49 53 54 56 57 57 58 58 59 60 60 61 61 59 58 57 57 55 54 53 51 47 48 47 43 43 42 42 43 44 44 44 45 47 51 57 61 62 64
42 43 45 47 47 50 53 53 53 54 54 53 52 54 56 56 57 58 57 56 56 54 53 52 49 50 48 47 46 45 41 41 41 44 43 43 43 45 44 51 55 56 59
41 43 44 45 45 47 51 51 50 49 50 51 50 50 51 51 54 54 54 53 53 52 50 49 48 46 46 47 47 47 42 41 40 40 41 43 42 43 43 43 44 45 54
40 41 42 42 43 45 43 42 45 43 45 45 47 48 49 48 50 49 50 51 51 50 49 48 46 45 45 44 46 46 45 44 41 40 39 39 40 42 41 42 42 42 44
37 38 40 41 41 43 42 42 42 41 41 42 44 43 43 43 44 47 47 47 48 48 48 47 46 45 45 45 44 42 41 41 41 39 38 39 39 39 40 41 41 41 41
34 34 38 38 39 40 41 42 41 40 39 39 39 40 40 41 41 41 41 42 44 45 44 45 45 44 42 44 45 45 41 39 39 39 39 37 37 37 38 39 40 41 41
33 34 36 38 38 39 40 40 38 36 35 34 35 36 38 38 38 39 39 39 39 39 38 40 43 44 43 41 42 44 42 41 39 38 38 40 37 38 37 37 38 39 40
34 32 33 36 37 37 37 37 37 35 34 33 33 35 35 36 36 36 36 37 36 37 36 36 37 37 39 39 41 41 40 40 39 37 37 37 39 39 37 37 38 37 39
33 33 33 34 34 35 35 35 34 33 32 33 31 32 32 32 34 34 34 33 34 34 34 34 34 35 35 36 36 37 39 39 39 38 37 40 40 40 37 37 36 37 37

GFSSE_sfc_temp_033.txt.gz
Temp
72 74 75 77 78 78 78 77 77 77 77 77 77 77 77 77 77 77 77 77 77 78 77 76 76 75 75 75 75 76 75 75 75 75 76 77 78 78 77 75 76 79 77
73 74 74 77 78 78 77 77 76 76 77 77 77 77 77 77 77 77 77 76 77 77 77 76 75 74 74 74 74 74 74 74 74 73 73 75 76 77 76 75 76 77 77
72 74 76 75 77 77 76 76 76 76 77 77 77 77 77 77 77 77 76 76 77 77 76 75 74 74 73 73 73 74 74 73 72 72 72 78 79 77 76 75 75 76 76
72 74 75 73 76 76 76 75 75 76 77 77 77 77 77 76 76 77 76 76 76 76 75 74 74 73 72 72 73 73 73 72 71 70 76 77 78 77 77 76 75 75 75
72 73 74 73 76 76 76 75 75 76 76 77 77 77 76 76 76 76 75 75 76 75 74 74 73 72 71 72 72 73 72 70 68 72 75 76 78 77 76 75 75 74 73
71 72 72 73 75 76 76 75 75 76 76 76 76 76 76 76 76 75 75 75 76 75 73 73 72 71 71 71 71 71 71 69 68 72 73 73 76 76 76 75 74 74 73
69 71 72 72 74 75 76 76 75 76 76 76 76 76 76 75 75 75 75 76 75 75 74 72 71 70 70 70 70 70 68 66 70 70 71 72 74 74 74 74 74 73 74
69 69 71 68 70 72 75 75 75 75 75 75 75 76 75 75 75 75 75 75 75 75 73 72 70 69 69 69 68 68 66 64 67 68 69 70 71 73 73 72 72 72 72
68 68 70 71 69 67 70 71 73 73 74 74 74 74 73 73 73 74 73 74 74 74 73 71 69 68 68 67 67 65 64 62 68 67 67 70 69 72 72 71 71 71 71
64 65 67 68 70 71 73 66 68 70 71 71 71 70 69 69 69 70 69 71 73 73 72 70 69 68 67 66 65 63 61 61 65 65 65 67 69 72 72 71 71 71 71
59 58 60 63 68 70 71 69 65 67 68 68 69 68 68 74 72 69 67 69 71 71 71 70 68 66 62 60 61 60 59 63 63 64 65 63 68 71 72 71 70 70 71
54 55 57 57 59 66 69 70 68 70 73 73 72 72 72 71 69 67 64 65 67 68 69 69 67 62 59 60 60 58 61 60 61 61 63 62 66 69 71 71 70 70 70
52 54 55 55 56 59 67 69 68 68 70 69 71 71 70 67 66 66 64 64 65 63 64 63 61 60 60 59 59 59 59 59 60 60 59 60 64 67 69 71 71 70 70
50 52 53 54 54 57 64 67 67 67 66 66 66 70 72 66 64 64 63 63 63 62 61 61 59 60 59 57 57 57 58 58 59 59 59 56 60 65 67 70 71 71 70
48 50 51 52 54 55 61 65 66 66 65 65 64 64 64 68 66 63 63 64 65 64 62 59 58 56 59 57 57 56 57 56 57 58 58 54 58 62 65 67 70 71 71
47 48 50 52 54 57 62 64 63 64 65 64 63 62 62 62 62 62 61 61 60 60 62 62 58 59 59 56 56 56 56 56 56 56 57 57 55 58 61 65 68 71 71
46 47 49 53 56 58 60 60 60 59 60 59 60 60 60 61 61 60 60 60 59 58 57 56 55 54 54 55 55 55 55 55 55 55 56 57 57 55 57 61 63 66 67
45 46 49 51 54 55 55 55 55 54 54 54 55 56 57 58 59 58 57 56 57 56 55 54 52 52 51 51 51 52 53 53 53 54 54 55 56 57 56 56 59 61 63
44 45 47 49 50 53 53 53 53 52 52 53 52 52 53 55 56 56 55 54 55 54 52 52 50 49 49 49 50 50 51 52 53 54 53 53 54 55 56 54 54 54 57
43 45 46 48 48 50 52 52 50 49 48 48 48 49 50 51 52 53 52 52 53 53 51 50 49 48 46 45 48 49 50 49 50 53 53 52 52 52 53 53 53 55 53
42 43 43 44 45 48 48 48 48 45 45 45 45 45 46 46 48 49 50 51 52 50 49 50 49 48 47 46 47 49 50 50 49 51 51 51 51 51 51 52 52 53 54
39 40 41 42 43 45 46 45 46 44 43 44 44 44 44 44 44 45 45 45 46 48 47 48 48 49 50 49 48 45 46 52 52 52 51 50 50 50 50 51 51 51 51
37 37 40 41 41 42 44 45 45 44 43 43 42 42 41 43 43 42 43 43 43 44 43 44 44 45 45 48 49 48 45 44 45 53 51 50 50 50 50 50 49 50 50
37 38 39 39 41 41 43 42 41 40 38 38 39 39 40 40 40 40 41 41 41 41 41 42 43 43 44 42 47 47 47 46 43 42 49 51 50 50 50 51 51 50 50
37 36 37 39 39 39 40 41 40 37 37 38 38 38 38 38 38 38 38 39 38 39 39 39 40 40 41 41 41 42 44 45 45 41 39 43 48 50 51 50 50 50 50
36 36 37 37 36 37 38 38 38 37 36 36 36 36 36 36 36 36 36 36 37 37 37 37 37 38 38 39 39 40 39 39 39 40 39 40 40 46 48 49 49 50 50